Chatham Islands/Tuuta (NZCI)

Aerodrome — Elev 43
New Zealand
S043.48.36.000 W176.27.26.000
Loading chart...

Current Weather

NZCI 251730Z 35002KT 20KM NCD 16/13 Q1023 RMK AUTO NZNR VATSIM USE ONLY

Published 36 minutes ago

Airport Activity

Loading chart...
Loading chart...

Standard ATC Positions

CallsignRadio Name / Freq / Voice Room / TypeFrequencyVoice RoomType
NZZO_FSS Auckland Radio
128.900
nzzo_fss
128.900nzzo_fss
UNICOM NZZO UNICOM
122.800
unicom_nzzo
122.800unicom_nzzo

Event ATC Positions

This airport has additional control positions that are designated for use only during major events.
These non-standard positions must not be staffed unless specifically activated by the VATNZ Airspace Director as part of an official VATNZ event.
At all other times, controllers should use the designated Standard ATC Positions.

CallsignRadio Name / Freq / Voice Room / TypeFrequencyVoice RoomType
NSFA_CTR Faleolo Control
123.800
nsfa_ctr
123.800nsfa_ctr

Charts

Departure Charts

Departure